Wind_Speed
7 8 9 10 11 12 12 13 13 13 13 13 14 14 14 14 15 15 16 17 17 16 15 14 13 12 12 12 12 13 13 12 11 11 11 10 9 9 8 7 6 5 5
6 7 7 8 9 10 11 11 11 11 12 12 12 13 13 13 14 14 15 16 16 16 15 14 13 12 11 11 11 11 11 11 11 11 11 10 9 9 8 8 6 4 4
4 5 6 7 8 8 9 9 10 10 10 11 11 12 12 12 12 13 13 15 15 16 15 14 13 12 11 11 10 10 10 10 10 10 10 9 9 8 8 8 6 4 4
4 5 6 6 7 7 7 8 8 9 9 9 10 10 11 11 12 12 12 13 14 14 15 14 14 13 12 11 10 9 9 9 9 9 9 8 8 8 8 8 7 4 3
4 5 6 6 7 7 7 8 8 8 8 8 8 9 9 10 11 11 12 12 13 13 14 14 13 13 12 11 11 10 9 8 8 8 8 8 8 7 7 7 6 5 2
6 6 7 8 8 9 9 9 9 9 9 8 8 8 9 10 10 11 12 13 13 13 13 13 13 13 12 12 11 10 9 8 7 7 7 8 7 7 7 6 6 5 3
7 8 9 9 10 11 11 11 11 11 10 10 9 9 9 10 11 11 12 13 13 13 13 13 13 13 12 12 12 11 10 9 8 7 7 7 7 7 7 6 6 5 4
9 10 11 11 11 12 13 13 13 13 12 11 11 11 11 11 12 13 14 14 14 14 14 14 14 13 13 13 12 11 10 9 8 8 7 7 8 8 7 7 6 5 5
11 12 12 12 13 13 13 14 14 15 14 14 13 13 13 13 13 14 15 15 14 14 14 15 15 15 14 14 13 12 11 10 10 9 9 8 8 8 8 7 7 7 6
12 13 12 13 13 13 13 14 14 15 15 15 15 15 15 15 15 15 16 15 15 15 16 15 16 16 16 15 15 14 13 12 12 11 11 10 9 9 9 9 9 9 8
11 12 12 12 12 13 13 14 15 15 15 16 16 16 16 16 16 16 16 16 16 17 17 17 17 17 17 17 16 16 16 15 15 14 13 12 11 11 10 10 10 10 11
12 12 12 13 13 13 14 15 15 16 16 17 17 17 17 17 17 17 18 18 18 18 18 19 19 19 19 19 19 19 19 19 19 18 17 15 14 13 12 12 11 12 12
16 16 17 16 16 17 17 17 17 18 18 19 19 19 19 19 19 20 20 20 20 20 20 21 21 21 21 22 22 21 22 22 22 22 21 20 18 16 15 15 14 13 13
19 19 20 21 21 21 22 22 22 21 21 22 22 22 22 23 23 23 23 23 23 23 22 23 23 23 23 24 24 24 25 26 25 25 25 25 23 21 20 18 17 16 15
23 22 23 25 26 26 26 26 26 26 26 26 25 26 26 26 27 26 26 26 26 26 26 26 26 26 26 26 27 27 27 28 28 29 29 28 27 26 24 22 20 19 18
28 28 27 29 30 31 30 30 30 30 30 30 30 30 30 30 30 30 30 30 29 29 29 29 28 28 29 29 29 30 30 30 30 31 31 31 30 29 27 26 24 23 22
32 32 33 33 34 35 35 35 35 34 34 33 32 32 32 32 33 33 33 33 33 32 32 31 31 31 31 31 31 31 32 31 31 32 33 33 32 31 30 29 27 26 25
35 35 36 36 36 38 39 40 39 38 36 36 35 34 34 34 34 35 35 35 35 35 34 33 33 33 33 33 33 33 33 33 33 33 34 34 33 33 34 32 31 30 29
35 35 36 37 37 38 38 38 37 37 37 37 37 36 36 35 35 35 36 37 36 36 35 35 35 35 35 35 34 34 34 34 34 33 34 34 35 35 34 34 33 32 31
34 34 35 35 36 36 37 37 37 37 37 38 38 38 37 37 36 37 37 37 37 37 37 37 37 37 36 35 35 34 34 34 34 34 34 34 35 35 34 34 34 33 33
35 35 36 35 37 37 35 35 35 36 37 38 38 39 38 38 38 39 38 38 38 38 38 37 37 37 37 36 36 35 34 34 34 35 35 34 34 34 34 34 35 34 34
36 37 39 39 38 38 39 37 37 37 37 38 39 39 39 39 40 40 40 40 40 40 40 37 36 36 37 37 37 35 33 33 34 35 35 34 34 33 32 33 33 33 32
35 37 40 39 39 38 38 38 38 38 38 38 38 39 39 40 41 41 41 41 41 41 41 40 39 38 37 38 37 35 34 33 34 34 34 33 33 33 32 32 31 30 31
34 35 37 37 37 38 38 39 39 39 38 38 39 39 40 41 41 41 41 42 41 41 41 40 40 39 39 38 37 36 35 35 34 32 32 33 33 33 32 31 30 30 30
32 34 35 36 37 37 37 38 38 38 38 38 38 39 39 40 40 41 42 42 42 42 41 41 41 41 40 39 39 38 37 36 34 32 31 32 32 32 31 31 31 30 30
33 34 35 37 38 38 39 39 39 39 38 38 38 38 39 39 40 41 42 42 42 43 43 43 43 43 43 42 42 41 39 38 36 34 32 31 31 32 31 31 30 29 28
Wind_Direction
75 64 55 48 42 39 38 36 32 28 24 21 20 21 22 23 24 26 28 29 28 27 26 25 23 24 26 29 33 37 38 39 40 42 45 48 52 54 54 51 56 64 69
65 54 48 42 38 34 33 33 32 29 24 19 16 16 17 17 18 20 22 23 24 25 25 24 23 22 21 22 25 29 32 32 31 33 37 40 42 44 44 40 40 49 60
46 36 32 30 30 30 29 28 28 27 24 19 14 11 11 11 12 13 14 16 17 19 21 22 22 21 20 19 19 22 25 26 25 24 27 30 32 33 33 30 30 40 51
20 12 10 12 15 17 17 15 16 17 18 16 12 8 5 5 5 6 7 8 9 12 15 17 18 18 17 17 15 15 17 19 18 15 15 21 22 22 25 26 24 30 37
354 352 353 354 354 352 351 351 354 356 358 1 2 1 359 357 357 357 357 358 360 2 5 8 11 13 14 14 13 11 10 11 11 6 0 4 8 7 9 11 13 14 11
332 329 330 332 333 333 333 332 332 333 334 336 340 343 345 346 346 345 345 346 346 348 353 357 359 3 6 8 8 7 5 1 1 358 350 347 352 350 349 351 353 358 357
316 314 313 314 316 318 320 320 318 318 317 317 319 322 328 331 332 332 334 335 335 335 338 343 345 350 354 358 0 1 1 356 351 347 342 336 336 334 332 332 333 341 343
302 303 303 302 303 305 307 309 309 308 307 306 306 307 311 315 320 321 323 326 327 327 328 331 333 334 338 343 348 353 355 353 347 340 331 327 325 322 317 313 313 317 320
294 295 296 296 297 298 300 303 305 305 303 302 301 300 301 304 308 313 316 319 323 323 323 323 324 324 325 328 331 335 340 342 341 337 330 323 318 313 306 301 300 300 298
296 293 293 294 295 296 297 299 301 303 302 301 299 299 299 300 303 308 312 314 317 320 320 320 319 318 317 317 319 321 322 324 327 326 324 323 318 313 306 298 294 291 289
303 299 297 296 296 295 295 296 297 299 300 300 300 300 300 300 301 305 307 309 312 314 316 318 318 316 313 311 310 310 310 310 310 313 314 314 314 314 309 301 295 289 284
306 304 302 300 298 296 294 293 293 294 294 294 295 297 298 298 299 300 302 304 307 309 310 312 313 314 313 310 307 304 303 302 301 302 302 302 304 308 309 303 296 291 286
301 301 300 298 295 294 293 291 290 290 291 291 292 293 293 294 295 296 296 297 300 301 303 304 305 307 307 306 304 301 298 296 294 294 293 293 295 297 298 297 293 289 285
296 296 295 294 293 291 290 289 288 287 288 288 289 290 290 289 289 290 292 294 295 296 297 298 298 299 300 300 298 296 294 293 290 287 286 285 285 286 285 285 287 287 285
290 289 289 288 288 288 286 285 285 286 286 285 286 286 287 287 287 287 287 288 289 290 292 293 293 294 294 296 295 291 291 290 288 283 281 280 279 278 278 279 281 282 283
289 287 287 286 283 283 282 281 281 282 282 282 283 283 283 284 284 284 283 284 284 285 285 287 288 290 291 293 293 290 288 288 285 281 278 276 273 272 273 272 274 277 278
290 288 287 284 281 280 279 277 275 277 277 278 278 279 280 280 280 280 281 282 282 281 282 283 284 286 288 290 291 291 289 288 285 280 275 274 269 267 269 269 269 272 275
291 289 287 284 280 278 277 276 274 275 276 277 277 276 275 275 275 276 278 279 280 280 280 281 282 284 286 287 288 290 290 289 287 281 275 271 267 266 266 267 266 267 271
292 290 287 284 282 279 275 277 276 277 278 278 277 276 274 273 272 273 274 276 278 278 279 279 281 283 285 286 287 289 290 288 287 282 279 273 270 269 266 263 264 265 267
294 292 288 285 285 284 280 280 278 278 278 277 276 276 276 276 275 274 275 275 277 278 278 279 280 282 284 285 286 288 288 287 285 281 279 275 273 270 266 262 261 262 264
298 296 293 289 289 286 284 284 282 279 278 277 277 276 277 277 276 276 275 276 276 277 277 279 280 281 282 283 284 286 286 284 284 281 279 275 273 270 265 262 262 263 264
298 296 295 292 291 288 287 285 282 279 277 276 276 277 277 277 277 276 277 278 280 279 279 278 281 282 281 283 283 283 283 282 282 281 278 276 273 268 265 263 263 262 263
295 294 294 293 293 291 289 287 285 282 280 278 277 277 277 277 278 278 279 280 281 282 283 282 282 283 284 284 282 282 283 282 280 281 279 276 270 266 264 263 262 262 261
296 295 293 294 294 293 291 289 287 285 282 280 279 278 278 279 279 280 280 280 281 282 283 282 282 283 282 283 282 283 285 283 281 278 277 274 270 267 264 262 262 264 263
299 297 295 294 293 292 292 291 289 287 286 284 282 281 280 279 280 280 282 281 281 282 282 282 282 282 281 282 282 282 282 281 280 278 274 271 270 267 265 263 262 263 262
298 296 295 295 294 292 291 290 289 288 287 286 285 283 282 281 281 281 282 283 283 283 282 282 281 280 280 280 280 279 278 277 277 276 274 271 269 267 264 263 263 262 258
Height
5934 5933 5933 5933 5932 5932 5931 5931 5930 5930 5929 5929 5928 5927 5925 5924 5922 5921 5919 5918 5916 5914 5912 5911 5909 5908 5907 5905 5904 5903 5902 5901 5899 5898 5897 5895 5894 5894 5893 5892 5892 5892 5891
5935 5935 5935 5934 5934 5933 5933 5932 5931 5931 5930 5929 5929 5928 5926 5925 5924 5922 5920 5919 5917 5915 5914 5912 5910 5909 5908 5906 5905 5904 5903 5901 5900 5899 5897 5896 5895 5894 5893 5893 5892 5892 5892
5937 5936 5936 5936 5935 5935 5934 5933 5932 5932 5931 5930 5929 5928 5927 5926 5925 5923 5921 5920 5918 5916 5915 5913 5911 5910 5908 5907 5906 5904 5903 5902 5900 5899 5898 5897 5896 5895 5894 5893 5892 5892 5892
5938 5938 5937 5937 5937 5936 5935 5934 5933 5932 5931 5930 5930 5929 5928 5926 5925 5924 5922 5921 5919 5917 5915 5913 5912 5910 5909 5907 5906 5905 5904 5902 5901 5899 5898 5897 5896 5895 5894 5893 5893 5892 5892
5939 5939 5938 5938 5937 5937 5936 5935 5934 5933 5932 5931 5930 5929 5928 5927 5925 5924 5923 5921 5920 5918 5916 5914 5912 5911 5909 5908 5906 5905 5904 5903 5901 5900 5898 5897 5896 5895 5894 5894 5893 5892 5892
5940 5939 5939 5938 5938 5937 5936 5936 5935 5933 5932 5931 5930 5928 5927 5926 5925 5924 5923 5921 5920 5918 5917 5915 5913 5911 5910 5908 5907 5905 5904 5903 5901 5900 5899 5897 5896 5895 5895 5894 5893 5892 5891
5939 5939 5939 5938 5937 5937 5936 5935 5934 5933 5932 5931 5929 5928 5927 5926 5924 5923 5922 5921 5919 5918 5917 5915 5913 5912 5910 5909 5907 5906 5904 5903 5901 5900 5899 5898 5897 5895 5894 5894 5893 5892 5891
5938 5938 5937 5937 5936 5936 5935 5934 5933 5932 5931 5930 5928 5927 5926 5925 5923 5922 5921 5920 5918 5917 5916 5914 5913 5912 5910 5909 5907 5906 5904 5903 5901 5900 5899 5897 5896 5895 5894 5893 5892 5891 5890
5937 5936 5936 5935 5935 5934 5933 5932 5931 5930 5929 5928 5927 5926 5924 5923 5922 5921 5920 5918 5917 5916 5915 5913 5912 5911 5910 5908 5907 5906 5904 5903 5901 5900 5898 5897 5896 5894 5893 5892 5891 5890 5889
5935 5935 5934 5933 5933 5932 5931 5930 5929 5928 5927 5926 5925 5924 5923 5921 5920 5919 5918 5916 5915 5914 5913 5911 5910 5909 5908 5907 5906 5904 5903 5902 5901 5899 5897 5896 5894 5893 5892 5891 5890 5888 5887
5934 5933 5932 5932 5930 5929 5928 5927 5926 5925 5924 5923 5922 5921 5920 5919 5917 5916 5915 5914 5913 5912 5910 5909 5908 5906 5905 5904 5903 5902 5901 5900 5899 5897 5896 5895 5893 5891 5890 5889 5888 5887 5886
5933 5932 5931 5929 5928 5927 5925 5924 5923 5922 5921 5920 5919 5918 5917 5915 5914 5913 5912 5911 5909 5908 5907 5906 5905 5904 5902 5901 5900 5899 5898 5897 5896 5895 5893 5892 5891 5889 5888 5887 5886 5885 5884
5931 5929 5928 5927 5926 5924 5922 5921 5920 5918 5917 5916 5915 5914 5913 5911 5910 5909 5907 5906 5905 5904 5903 5902 5901 5900 5899 5898 5896 5895 5894 5893 5892 5891 5890 5889 5888 5886 5885 5884 5884 5883 5882
5928 5927 5924 5923 5922 5920 5919 5917 5915 5914 5913 5911 5910 5909 5908 5907 5905 5904 5902 5901 5900 5899 5898 5897 5896 5895 5894 5893 5891 5890 5889 5888 5887 5886 5886 5885 5884 5883 5882 5881 5880 5879 5878
5924 5923 5921 5919 5917 5915 5914 5912 5910 5908 5907 5906 5905 5903 5902 5901 5900 5898 5897 5896 5894 5893 5892 5891 5890 5889 5887 5886 5885 5884 5883 5882 5881 5880 5880 5880 5879 5879 5878 5877 5876 5875 5874
5917 5917 5916 5914 5911 5909 5907 5906 5904 5902 5901 5899 5898 5897 5895 5894 5892 5891 5890 5889 5888 5887 5886 5884 5883 5882 5881 5880 5878 5877 5876 5875 5874 5873 5873 5873 5872 5872 5872 5871 5870 5869 5869
5909 5908 5907 5905 5903 5901 5898 5897 5896 5895 5894 5892 5891 5890 5888 5887 5885 5883 5882 5881 5880 5879 5878 5877 5875 5874 5873 5872 5871 5869 5868 5867 5866 5865 5865 5864 5864 5865 5865 5864 5864 5863 5863
5900 5898 5896 5895 5893 5891 5888 5886 5884 5884 5884 5883 5882 5881 5880 5879 5877 5875 5873 5872 5870 5869 5868 5867 5866 5866 5865 5863 5862 5861 5860 5858 5857 5856 5855 5855 5855 5856 5856 5857 5857 5856 5856
5891 5889 5887 5884 5882 5879 5876 5874 5871 5872 5872 5872 5871 5871 5870 5869 5867 5866 5864 5862 5861 5860 5858 5857 5856 5856 5855 5854 5852 5852 5850 5849 5848 5847 5846 5846 5846 5847 5847 5848 5848 5849 5849
5883 5881 5877 5874 5873 5870 5867 5866 5864 5864 5863 5861 5860 5859 5859 5858 5857 5855 5854 5853 5851 5849 5848 5847 5847 5846 5846 5844 5843 5842 5841 5840 5839 5838 5837 5837 5836 5837 5837 5839 5840 5840 5841
5875 5872 5870 5866 5864 5861 5857 5857 5856 5855 5854 5852 5850 5849 5849 5848 5847 5845 5844 5842 5840 5839 5838 5838 5837 5836 5836 5834 5833 5833 5833 5831 5830 5829 5827 5827 5827 5827 5828 5829 5831 5832 5833
5868 5864 5860 5857 5855 5852 5849 5848 5847 5846 5844 5843 5842 5840 5839 5838 5837 5835 5833 5832 5830 5829 5828 5827 5827 5826 5826 5824 5824 5823 5824 5823 5821 5819 5818 5817 5818 5818 5819 5820 5821 5823 5824
5862 5858 5852 5848 5845 5843 5841 5839 5837 5836 5835 5834 5832 5831 5829 5828 5826 5824 5823 5822 5821 5820 5818 5818 5817 5816 5816 5815 5814 5813 5813 5813 5813 5812 5809 5809 5809 5809 5810 5812 5813 5814 5815
5856 5851 5846 5842 5838 5835 5832 5830 5828 5826 5825 5824 5823 5821 5819 5818 5816 5815 5813 5812 5811 5810 5809 5808 5806 5806 5807 5806 5805 5804 5804 5803 5803 5803 5802 5801 5800 5800 5802 5803 5804 5805 5807
5849 5844 5839 5835 5831 5828 5825 5822 5819 5817 5816 5814 5812 5811 5810 5808 5806 5805 5803 5802 5801 5799 5799 5798 5797 5797 5797 5797 5796 5795 5794 5794 5793 5794 5793 5793 5792 5792 5794 5795 5796 5797 5799
5840 5836 5831 5827 5823 5820 5816 5813 5811 5808 5806 5805 5803 5801 5800 5798 5797 5795 5793 5791 5790 5789 5788 5787 5787 5786 5786 5786 5785 5785 5785 5785 5785 5785 5785 5785 5784 5784 5785 5786 5788 5789 5790